Tucumcari, NM

10:47 PM MDT on April 30, 2017 (GMT -0600)
Tucumcari Municipal

Weather History for KTCC - September, 2014

Change the Weather History Date:

Wednesday, September 3, 2014

  Actual Average Record
Temperature  
Mean Temperature 86 °F -  
Max Temperature 100 °F 88 °F 102 °F (1947)
Min Temperature 72 °F 60 °F 48 °F (1934)
Cooling Degree Days 21    
Growing Degree Days 36 (Base 50)    
Moisture  
Dew Point 53 °F    
Average Humidity 36    
Maximum Humidity 59    
Minimum Humidity 13    
Precipitation  
Precipitation 0.00 in - - ()
Sea Level Pressure  
Sea Level Pressure 29.72 in    
Wind  
Wind Speed 16 mph (SSW)    
Max Wind Speed 29 mph    
Max Gust Speed 37 mph    
Visibility 10 miles    
Events      
Averages and records for this station are not official NWS values.
T = Trace of Precipitation, MM = Missing Value Source: NWS Daily Summary

Daily Weather History Graph

Daily Weather History Graph

Search for Another Location

Airport or City:

Trip Planner

Search our weather history database for the weather conditions in past years. The results will help you decide how hot, cold, wet, or windy it might be!

Date:

Astronomy

Sep. 03, 2014 Rise Set
Actual Time 6:28 AM MDT 7:18 PM MDT
Civil Twilight 6:02 AM MDT 7:44 PM MDT
Nautical Twilight 5:32 AM MDT 8:14 PM MDT
Astronomical Twilight 5:00 AM MDT 8:45 PM MDT
Moon 2:55 PM MDT (9/3) 12:31 AM MDT (9/3)
Length of Visible Light 13h 41m
Length of Day
12h 49m
Waxing Gibbous, 64% of the Moon is Illuminated
Sep 3
Waxing Gibbous
Sep 8
Full
Sep 15
Last Quarter
Sep 24
New
Oct 1
First Quarter

Hourly Weather History & Observations

Time (MDT) Temp. Heat Index Dew Point Humidity Pressure Visibility Wind Dir Wind Speed Gust Speed Precip Events Conditions
12:53 AM 81.0 °F 80.8 °F 55.9 °F 42% 29.75 in 10.0 mi South 18.4 mph 31.1 mph N/A   Clear
1:53 AM 79.0 °F - 55.9 °F 45% 29.74 in 10.0 mi South 19.6 mph - N/A   Clear
2:53 AM 78.1 °F - 55.9 °F 46% 29.74 in 10.0 mi South 18.4 mph 27.6 mph N/A   Clear
3:53 AM 77.0 °F - 55.9 °F 48% 29.75 in 10.0 mi SW 8.1 mph - N/A   Clear
4:53 AM 75.0 °F - 55.9 °F 51% 29.75 in 10.0 mi SW 12.7 mph - N/A   Clear
5:53 AM 75.0 °F - 57.0 °F 53% 29.77 in 10.0 mi WSW 4.6 mph - N/A   Clear
6:53 AM 72.0 °F - 57.0 °F 59% 29.79 in 10.0 mi West 8.1 mph - N/A   Clear
7:53 AM 75.9 °F - 57.9 °F 54% 29.79 in 10.0 mi SW 12.7 mph - N/A   Clear
8:53 AM 79.0 °F - 57.9 °F 48% 29.81 in 10.0 mi SW 16.1 mph 20.7 mph N/A   Clear
9:53 AM 84.0 °F 83.3 °F 57.0 °F 40% 29.80 in 10.0 mi SSW 13.8 mph - N/A   Clear
10:53 AM 87.1 °F 86.5 °F 59.0 °F 39% 29.77 in 10.0 mi South 15.0 mph - N/A   Clear
11:53 AM 93.0 °F 91.7 °F 57.0 °F 30% 29.74 in 10.0 mi South 11.5 mph 19.6 mph N/A   Clear
12:53 PM 97.0 °F - 50.0 °F 20% 29.71 in 10.0 mi SW 11.5 mph 21.9 mph N/A   Clear
1:53 PM 99.0 °F - 46.9 °F 17% 29.68 in 10.0 mi SSW 16.1 mph 21.9 mph N/A   Clear
2:53 PM 100.0 °F - 46.0 °F 16% 29.65 in 10.0 mi SSW 18.4 mph - N/A   Partly Cloudy
3:53 PM 100.9 °F - 41.0 °F 13% 29.63 in 10.0 mi SSW 19.6 mph 24.2 mph N/A   Partly Cloudy
4:53 PM 100.0 °F - 39.9 °F 13% 29.63 in 10.0 mi South 16.1 mph - N/A   Clear
5:53 PM 97.0 °F - 46.0 °F 18% 29.64 in 10.0 mi SSW 16.1 mph 27.6 mph N/A   Clear
6:53 PM 93.0 °F - 48.9 °F 22% 29.65 in 10.0 mi SSE 23.0 mph 29.9 mph N/A   Clear
7:53 PM 89.1 °F - 50.0 °F 26% 29.67 in 10.0 mi South 21.9 mph 29.9 mph N/A   Clear
8:53 PM 86.0 °F - 52.0 °F 31% 29.70 in 10.0 mi South 23.0 mph 29.9 mph N/A   Clear
9:53 PM 84.0 °F 83.0 °F 55.9 °F 38% 29.72 in 10.0 mi South 28.8 mph 36.8 mph N/A   Clear
10:53 PM 81.0 °F 81.1 °F 57.9 °F 45% 29.74 in 10.0 mi South 25.3 mph 35.7 mph N/A   Clear
11:53 PM 80.1 °F 80.6 °F 57.9 °F 47% 29.73 in 10.0 mi South 21.9 mph 35.7 mph N/A   Clear